Location: Newark
(40.9833°N, 0.0333°W)
Time: 01:52:30
(UTC+00:00)

Altair - Pass Details

Date: 04 November 2020
Orbit: 1502 x 1682 km, 47.2° (Epoch: 02 December)

Event Time Altitude Azimuth Distance (km) Brightness Sun altitude
Rises 07:05:16 0° 287° (WNW) 4,674 9.4 4.5°
Reaches altitude 10° 07:08:19 10° 291° (WNW) 3,709 8.9 5.0°
Maximum altitude 07:17:40 65° 13° (NNE) 1,703 7.9 6.6°
Drops below altitude 10° 07:27:23 10° 95° (E) 3,845 11.1 8.2°
Sets 07:30:37 0° 98° (E) 4,854 11.6 8.7°
